Regional Weather Roundup
Issued by NWS

Home | Current Version | Previous Version | Text Only | Print | Product List | Glossary On
Versions: 1 2 3 4 5 6 7 8 9 10 11 12 13 14 15 16 17 18 19 20 21 22 23 24 25 26 27 28 29 30 31 32 33 34 35 36 37 38 39 40 41 42 43 44 45 46 47 48 49 50
000
ASUS42 KKEY 031610
RWRKEY

FLORIDA REGIONAL WEATHER ROUNDUP FOR THE FLORIDA KEYS
NATIONAL WEATHER SERVICE KEY WEST FLORIDA
1100 AM EST SAT DEC 03 2016

...SOUTH FLORIDA AND THE KEYS...

CITY           SKY/WX    TMP DP  RH WIND       PRES   REMARKS
FORT MYERS     SUNNY     78  60  53 E13G18    30.11F
SW REGIONAL AP SUNNY     78  59  51 E18G24    30.12F
NAPLES         SUNNY     78  61  55 NE17      30.10F
MIAMI          MOSUNNY   79  66  64 NE10      30.10F
WEST KENDALL   SUNNY     81  66  60 E14       30.09F
HOMESTEAD      MOSUNNY   79  68  69 NE16      30.09S
MARATHON       CLOUDY    81  71  71 NE15G23   30.07F
BOCA CHICA NAS PTSUNNY   78  71  79 E16       30.07F
KEY WEST INTL  MOSUNNY   79  72  79 E13G18    30.08F

...INTERNATIONAL WEATHER...

CITY           SKY/WX    TMP DP  RH WIND       PRES   REMARKS
NASSAU BAHAMAS MOSUNNY   77  72  83 NE16      30.09S
CANCUN MEXICO  PTSUNNY   84  75  74 E9        30.01R HX  92
COZUMEL MEXICO PTSUNNY   84  75  74 E8        29.98S HX  92

ADJACENT COASTAL WATERS...

STATION/POSITION TIME  SKY/WX   TEMP    WIND        PRES    WAVE
                                AIR SEA DIR/SP/G            HT/PER
                 (UTC)          (F)     (DEG/KT/KT) (MB)    (FT/S)
PULASKI SHOAL LI 1600            75      80/ 18/ 21 1018.4F
SAND KEY         1550            76      90/ 21/ 24 1018.7F
LONG KEY         1600            77 78   80/ 17/ 19 1018.8F
FOWEY ROCKS      1600            76 78   50/ 17/ 19 1019.7F

$$



USA.gov is the U.S. government's official web portal to all federal, state and local government web resources and services.